Time,TemperatureF,DewpointF,PressureIn,WindDirection,WindDirectionDegrees,WindSpeedMPH,WindSpeedGustMPH,Humidity,HourlyPrecipIn,Conditions,Clouds,dailyrainin,SoftwareType,DateUTC
2013-01-12 00:10:00,70.9,67.2,30.17,SE,126,2.0,2.0,88,0.00,,,0.00,Wunderground v.1.13,2013-01-12 05:10:00,
2013-01-12 00:20:00,70.6,67.2,30.17,SE,141,1.0,1.0,89,0.00,,,0.00,Wunderground v.1.13,2013-01-12 05:20:00,
2013-01-12 00:30:00,70.3,67.2,30.17,ESE,121,0.0,1.0,90,0.00,,,0.00,Wunderground v.1.13,2013-01-12 05:30:00,
2013-01-12 00:40:00,69.9,67.2,30.17,SE,134,0.0,0.0,91,0.00,,,0.00,Wunderground v.1.13,2013-01-12 05:40:00,
2013-01-12 00:50:00,69.6,66.9,30.16,SE,136,0.0,0.0,91,0.00,,,0.00,Wunderground v.1.13,2013-01-12 05:50:00,
2013-01-12 01:00:00,69.6,67.2,30.16,SE,135,0.0,7.0,92,0.00,,,0.00,Wunderground v.1.13,2013-01-12 06:00:00,
2013-01-12 01:10:00,69.3,66.9,30.16,SE,141,0.0,0.0,92,0.00,,,0.00,Wunderground v.1.13,2013-01-12 06:10:00,
2013-01-12 01:20:00,69.1,67.0,30.16,SE,131,1.0,1.0,93,0.00,,,0.00,Wunderground v.1.13,2013-01-12 06:20:00,
2013-01-12 01:30:00,68.9,66.5,30.16,ESE,107,1.0,1.0,92,0.00,,,0.00,Wunderground v.1.13,2013-01-12 06:30:00,
2013-01-12 01:40:00,68.9,66.8,30.16,SE,131,0.0,0.0,93,0.00,,,0.00,Wunderground v.1.13,2013-01-12 06:40:00,
2013-01-12 01:50:00,68.8,66.7,30.16,ESE,119,0.0,0.0,93,0.00,,,0.00,Wunderground v.1.13,2013-01-12 06:50:00,
2013-01-12 02:00:00,68.6,66.5,30.15,ESE,120,0.0,0.0,93,0.00,,,0.00,Wunderground v.1.13,2013-01-12 07:00:00,
2013-01-12 02:10:00,68.4,66.3,30.15,ESE,123,0.0,0.0,93,0.00,,,0.00,Wunderground v.1.13,2013-01-12 07:10:00,
2013-01-12 02:20:00,68.4,66.3,30.15,SE,134,0.0,0.0,93,0.00,,,0.00,Wunderground v.1.13,2013-01-12 07:20:00,
2013-01-12 02:30:00,68.3,66.5,30.15,SE,134,0.0,0.0,94,0.00,,,0.00,Wunderground v.1.13,2013-01-12 07:30:00,
2013-01-12 02:40:00,68.1,66.3,30.15,East,97,0.0,0.0,94,0.00,,,0.00,Wunderground v.1.13,2013-01-12 07:40:00,
2013-01-12 02:50:00,67.9,66.4,30.14,East,97,0.0,0.0,95,0.00,,,0.00,Wunderground v.1.13,2013-01-12 07:50:00,
2013-01-12 03:00:00,67.8,66.3,30.14,East,97,0.0,0.0,95,0.00,,,0.00,Wunderground v.1.13,2013-01-12 08:00:00,
2013-01-12 03:10:00,67.4,65.9,30.14,East,97,0.0,0.0,95,0.00,,,0.00,Wunderground v.1.13,2013-01-12 08:10:00,
2013-01-12 03:20:00,67.3,66.1,30.14,East,97,0.0,0.0,96,0.00,,,0.00,Wunderground v.1.13,2013-01-12 08:20:00,
2013-01-12 03:30:00,67.1,65.9,30.14,East,97,0.0,0.0,96,0.00,,,0.00,Wunderground v.1.13,2013-01-12 08:30:00,
2013-01-12 03:40:00,66.9,66.0,30.14,East,99,0.0,0.0,97,0.00,,,0.00,Wunderground v.1.13,2013-01-12 08:40:00,
2013-01-12 03:50:00,66.9,66.0,30.14,East,99,0.0,0.0,97,0.00,,,0.00,Wunderground v.1.13,2013-01-12 08:50:00,
2013-01-12 04:00:00,66.8,65.9,30.14,East,99,0.0,0.0,97,0.00,,,0.00,Wunderground v.1.13,2013-01-12 09:00:00,
2013-01-12 04:10:00,66.8,65.9,30.14,East,99,0.0,0.0,97,0.00,,,0.00,Wunderground v.1.13,2013-01-12 09:10:00,
2013-01-12 04:20:00,66.4,65.5,30.13,East,99,0.0,0.0,97,0.00,,,0.00,Wunderground v.1.13,2013-01-12 09:20:00,
2013-01-12 04:30:00,66.4,65.5,30.13,East,99,0.0,0.0,97,0.00,,,0.00,Wunderground v.1.13,2013-01-12 09:30:00,
2013-01-12 04:40:00,66.4,65.5,30.13,East,99,0.0,0.0,97,0.00,,,0.00,Wunderground v.1.13,2013-01-12 09:40:00,
2013-01-12 04:50:00,66.3,65.7,30.13,East,99,0.0,0.0,98,0.00,,,0.00,Wunderground v.1.13,2013-01-12 09:50:00,
2013-01-12 05:00:00,66.3,65.7,30.13,East,99,0.0,0.0,98,0.00,,,0.00,Wunderground v.1.13,2013-01-12 10:00:00,
2013-01-12 05:10:00,66.3,65.7,30.13,East,99,0.0,0.0,98,0.00,,,0.00,Wunderground v.1.13,2013-01-12 10:10:00,
2013-01-12 05:20:00,66.4,65.8,30.13,East,100,0.0,0.0,98,0.00,,,0.00,Wunderground v.1.13,2013-01-12 10:20:00,
2013-01-12 05:30:00,66.6,66.0,30.13,ESE,106,0.0,0.0,98,0.00,,,0.00,Wunderground v.1.13,2013-01-12 10:30:00,
2013-01-12 05:40:00,66.6,66.0,30.13,ESE,107,0.0,0.0,98,0.00,,,0.00,Wunderground v.1.13,2013-01-12 10:40:00,
2013-01-12 05:50:00,66.8,66.2,30.13,SE,134,0.0,0.0,98,0.00,,,0.00,Wunderground v.1.13,2013-01-12 10:50:00,
2013-01-12 06:00:00,66.8,66.2,30.13,SE,124,0.0,0.0,98,0.00,,,0.00,Wunderground v.1.13,2013-01-12 11:00:00,
2013-01-12 06:10:00,66.8,65.9,30.13,SE,126,0.0,0.0,97,0.00,,,0.00,Wunderground v.1.13,2013-01-12 11:10:00,
2013-01-12 06:20:00,66.8,65.9,30.14,ESE,113,0.0,0.0,97,0.00,,,0.00,Wunderground v.1.13,2013-01-12 11:20:00,
2013-01-12 06:30:00,66.6,65.7,30.14,ESE,113,0.0,0.0,97,0.00,,,0.00,Wunderground v.1.13,2013-01-12 11:30:00,
2013-01-12 06:40:00,66.4,65.5,30.14,ESE,109,0.0,0.0,97,0.00,,,0.00,Wunderground v.1.13,2013-01-12 11:40:00,
2013-01-12 06:50:00,66.4,65.5,30.14,ESE,110,0.0,0.0,97,0.00,,,0.00,Wunderground v.1.13,2013-01-12 11:50:00,
2013-01-12 07:00:00,66.3,65.4,30.14,ESE,110,0.0,0.0,97,0.00,,,0.00,Wunderground v.1.13,2013-01-12 12:00:00,
2013-01-12 07:10:00,66.1,65.5,30.14,ESE,110,0.0,0.0,98,0.00,,,0.00,Wunderground v.1.13,2013-01-12 12:10:00,
2013-01-12 07:20:00,66.1,65.5,30.15,ESE,110,0.0,0.0,98,0.00,,,0.00,Wunderground v.1.13,2013-01-12 12:20:00,
2013-01-12 07:30:00,66.1,65.5,30.15,ESE,110,0.0,0.0,98,0.00,,,0.00,Wunderground v.1.13,2013-01-12 12:30:00,
2013-01-12 07:40:00,66.1,65.5,30.15,ESE,110,0.0,0.0,98,0.00,,,0.00,Wunderground v.1.13,2013-01-12 12:40:00,
2013-01-12 07:50:00,66.1,65.5,30.15,ESE,110,0.0,0.0,98,0.00,,,0.00,Wunderground v.1.13,2013-01-12 12:50:00,
2013-01-12 08:00:00,66.4,65.8,30.16,ESE,112,0.0,0.0,98,0.00,,,0.00,Wunderground v.1.13,2013-01-12 13:00:00,
2013-01-12 08:10:00,66.8,65.9,30.16,ESE,121,0.0,0.0,97,0.00,,,0.00,Wunderground v.1.13,2013-01-12 13:10:00,
2013-01-12 08:20:00,67.4,66.2,30.16,ESE,107,0.0,0.0,96,0.00,,,0.00,Wunderground v.1.13,2013-01-12 13:20:00,
2013-01-12 08:30:00,68.1,66.6,30.16,ESE,109,1.0,1.0,95,0.00,,,0.00,Wunderground v.1.13,2013-01-12 13:30:00,
2013-01-12 08:40:00,68.9,66.5,30.16,ESE,103,1.0,4.0,92,0.00,,,0.00,Wunderground v.1.13,2013-01-12 13:40:00,
2013-01-12 08:50:00,69.8,67.1,30.16,ESE,112,0.0,0.0,91,0.00,,,0.00,Wunderground v.1.13,2013-01-12 13:50:00,
2013-01-12 09:00:00,70.3,66.6,30.16,SE,145,3.0,3.0,88,0.00,,,0.00,Wunderground v.1.13,2013-01-12 14:00:00,
2013-01-12 09:10:00,71.3,66.9,30.16,SE,133,2.0,2.0,86,0.00,,,0.00,Wunderground v.1.13,2013-01-12 14:10:00,
2013-01-12 09:20:00,71.8,66.7,30.17,ESE,120,3.0,4.0,84,0.00,,,0.00,Wunderground v.1.13,2013-01-12 14:20:00,
2013-01-12 09:30:00,72.0,66.6,30.17,ESE,116,3.0,3.0,83,0.00,,,0.00,Wunderground v.1.13,2013-01-12 14:30:00,
2013-01-12 09:40:00,72.1,66.3,30.17,ESE,104,5.0,7.0,82,0.00,,,0.00,Wunderground v.1.13,2013-01-12 14:40:00,
2013-01-12 09:50:00,73.0,66.8,30.17,ESE,119,4.0,7.0,81,0.00,,,0.00,Wunderground v.1.13,2013-01-12 14:50:00,
2013-01-12 10:00:00,73.5,66.2,30.17,ESE,106,2.0,2.0,78,0.00,,,0.00,Wunderground v.1.13,2013-01-12 15:00:00,
2013-01-12 10:10:00,74.2,66.5,30.17,SE,133,2.0,2.0,77,0.00,,,0.00,Wunderground v.1.13,2013-01-12 15:10:00,
2013-01-12 10:20:00,74.7,67.0,30.17,SE,145,2.0,6.0,77,0.00,,,0.00,Wunderground v.1.13,2013-01-12 15:20:00,
2013-01-12 10:30:00,74.6,66.9,30.16,SE,127,5.0,9.0,77,0.00,,,0.00,Wunderground v.1.13,2013-01-12 15:30:00,
2013-01-12 10:40:00,74.7,67.0,30.16,ESE,102,4.0,4.0,77,0.00,,,0.00,Wunderground v.1.13,2013-01-12 15:40:00,
2013-01-12 10:50:00,75.1,67.0,30.16,SE,134,5.0,5.0,76,0.00,,,0.00,Wunderground v.1.13,2013-01-12 15:50:00,
2013-01-12 11:00:00,75.6,67.5,30.15,NE,37,4.0,4.0,76,0.00,,,0.00,Wunderground v.1.13,2013-01-12 16:00:00,
2013-01-12 11:10:00,76.3,67.8,30.15,SE,144,3.0,3.0,75,0.00,,,0.00,Wunderground v.1.13,2013-01-12 16:10:00,
2013-01-12 11:20:00,76.5,68.0,30.15,East,92,5.0,5.0,75,0.00,,,0.00,Wunderground v.1.13,2013-01-12 16:20:00,
2013-01-12 11:30:00,77.2,67.9,30.14,SE,131,3.0,3.0,73,0.00,,,0.00,Wunderground v.1.13,2013-01-12 16:30:00,
2013-01-12 11:40:00,77.4,68.5,30.14,SSE,151,5.0,7.0,74,0.00,,,0.00,Wunderground v.1.13,2013-01-12 16:40:00,
2013-01-12 11:50:00,77.9,68.9,30.13,SW,229,5.0,5.0,74,0.00,,,0.00,Wunderground v.1.13,2013-01-12 16:50:00,
2013-01-12 12:00:00,78.1,68.7,30.13,SE,126,5.0,16.0,73,0.00,,,0.00,Wunderground v.1.13,2013-01-12 17:00:00,
2013-01-12 12:10:00,78.3,68.1,30.13,SE,138,6.0,6.0,71,0.00,,,0.00,Wunderground v.1.13,2013-01-12 17:10:00,
2013-01-12 12:20:00,79.0,68.4,30.11,SE,141,4.0,9.0,70,0.00,,,0.00,Wunderground v.1.13,2013-01-12 17:20:00,
2013-01-12 12:30:00,79.2,68.6,30.11,East,80,5.0,5.0,70,0.00,,,0.00,Wunderground v.1.13,2013-01-12 17:30:00,
2013-01-12 12:40:00,79.4,68.3,30.11,SE,133,4.0,7.0,69,0.00,,,0.00,Wunderground v.1.13,2013-01-12 17:40:00,
2013-01-12 12:50:00,79.4,67.9,30.10,ESE,109,4.0,4.0,68,0.00,,,0.00,Wunderground v.1.13,2013-01-12 17:50:00,
2013-01-12 13:00:00,79.0,67.5,30.10,SE,124,6.0,6.0,68,0.00,,,0.00,Wunderground v.1.13,2013-01-12 18:00:00,
2013-01-12 13:10:00,79.4,67.5,30.10,SSE,157,4.0,7.0,67,0.00,,,0.00,Wunderground v.1.13,2013-01-12 18:10:00,
2013-01-12 13:20:00,79.6,67.7,30.09,ESE,114,5.0,10.0,67,0.00,,,0.00,Wunderground v.1.13,2013-01-12 18:20:00,
2013-01-12 13:30:00,80.1,67.7,30.09,SSE,150,4.0,6.0,66,0.00,,,0.00,Wunderground v.1.13,2013-01-12 18:30:00,
2013-01-12 13:40:00,81.2,67.9,30.09,ESE,113,2.0,2.0,64,0.00,,,0.00,Wunderground v.1.13,2013-01-12 18:40:00,
2013-01-12 13:50:00,80.3,67.0,30.09,ESE,119,3.0,3.0,64,0.00,,,0.00,Wunderground v.1.13,2013-01-12 18:50:00,
2013-01-12 14:00:00,80.7,66.9,30.08,East,85,2.0,2.0,63,0.00,,,0.00,Wunderground v.1.13,2013-01-12 19:00:00,
2013-01-12 14:10:00,80.9,66.7,30.08,East,89,2.0,6.0,62,0.00,,,0.00,Wunderground v.1.13,2013-01-12 19:10:00,
2013-01-12 14:20:00,81.2,66.9,30.08,SSW,193,3.0,3.0,62,0.00,,,0.00,Wunderground v.1.13,2013-01-12 19:20:00,
2013-01-12 14:30:00,81.6,66.8,30.08,ESE,119,3.0,3.0,61,0.00,,,0.00,Wunderground v.1.13,2013-01-12 19:30:00,
2013-01-12 14:40:00,81.8,66.6,30.08,SE,141,3.0,3.0,60,0.00,,,0.00,Wunderground v.1.13,2013-01-12 19:40:00,
2013-01-12 14:50:00,81.8,66.1,30.08,SE,138,4.0,6.0,59,0.00,,,0.00,Wunderground v.1.13,2013-01-12 19:50:00,
2013-01-12 15:00:00,82.0,66.3,30.07,ESE,110,2.0,2.0,59,0.00,,,0.00,Wunderground v.1.13,2013-01-12 20:00:00,
2013-01-12 15:10:00,82.2,66.4,30.07,ESE,112,1.0,1.0,59,0.00,,,0.00,Wunderground v.1.13,2013-01-12 20:10:00,
2013-01-12 15:20:00,82.0,66.3,30.08,SE,133,2.0,9.0,59,0.00,,,0.00,Wunderground v.1.13,2013-01-12 20:20:00,
2013-01-12 15:30:00,79.4,68.8,30.08,West,267,1.0,1.0,70,0.00,,,0.00,Wunderground v.1.13,2013-01-12 20:30:00,
2013-01-12 15:40:00,77.2,69.0,30.08,WSW,257,1.0,1.0,76,0.00,,,0.00,Wunderground v.1.13,2013-01-12 20:40:00,
2013-01-12 15:50:00,75.4,68.8,30.09,West,270,1.0,1.0,80,0.00,,,0.00,Wunderground v.1.13,2013-01-12 20:50:00,
2013-01-12 16:00:00,74.2,68.7,30.10,West,270,1.0,1.0,83,0.00,,,0.00,Wunderground v.1.13,2013-01-12 21:00:00,
2013-01-12 16:10:00,74.7,69.2,30.10,West,270,0.0,0.0,83,0.00,,,0.00,Wunderground v.1.13,2013-01-12 21:10:00,
2013-01-12 16:20:00,75.1,68.9,30.10,West,268,1.0,1.0,81,0.00,,,0.00,Wunderground v.1.13,2013-01-12 21:20:00,
2013-01-12 16:30:00,74.9,69.0,30.10,West,268,1.0,1.0,82,0.00,,,0.00,Wunderground v.1.13,2013-01-12 21:30:00,
2013-01-12 16:40:00,75.1,69.2,30.10,West,268,0.0,0.0,82,0.00,,,0.00,Wunderground v.1.13,2013-01-12 21:40:00,
2013-01-12 16:50:00,74.9,69.0,30.10,West,268,0.0,0.0,82,0.00,,,0.00,Wunderground v.1.13,2013-01-12 21:50:00,
2013-01-12 17:00:00,74.7,68.8,30.09,West,267,1.0,1.0,82,0.00,,,0.00,Wunderground v.1.13,2013-01-12 22:00:00,
2013-01-12 17:10:00,74.7,68.8,30.09,West,267,0.0,0.0,82,0.00,,,0.00,Wunderground v.1.13,2013-01-12 22:10:00,
2013-01-12 17:20:00,74.2,68.7,30.10,West,267,0.0,0.0,83,0.00,,,0.00,Wunderground v.1.13,2013-01-12 22:20:00,
2013-01-12 17:30:00,73.7,68.6,30.10,West,267,0.0,0.0,84,0.00,,,0.00,Wunderground v.1.13,2013-01-12 22:30:00,
2013-01-12 17:40:00,73.0,68.6,30.10,West,267,0.0,0.0,86,0.00,,,0.00,Wunderground v.1.13,2013-01-12 22:40:00,
2013-01-12 17:50:00,72.5,68.4,30.10,West,267,0.0,0.0,87,0.00,,,0.00,Wunderground v.1.13,2013-01-12 22:50:00,
2013-01-12 18:00:00,72.1,68.3,30.10,West,267,0.0,0.0,88,0.00,,,0.00,Wunderground v.1.13,2013-01-12 23:00:00,
2013-01-12 18:10:00,71.8,68.4,30.10,West,267,0.0,0.0,89,0.00,,,0.00,Wunderground v.1.13,2013-01-12 23:10:00,
2013-01-12 18:20:00,71.3,68.2,30.11,West,267,0.0,0.0,90,0.00,,,0.00,Wunderground v.1.13,2013-01-12 23:20:00,
2013-01-12 18:30:00,70.9,68.1,30.11,West,267,0.0,0.0,91,0.00,,,0.00,Wunderground v.1.13,2013-01-12 23:30:00,
2013-01-12 18:40:00,70.6,68.2,30.11,West,267,0.0,0.0,92,0.00,,,0.00,Wunderground v.1.13,2013-01-12 23:40:00,
2013-01-12 18:50:00,70.4,68.0,30.11,West,267,0.0,0.0,92,0.00,,,0.00,Wunderground v.1.13,2013-01-12 23:50:00,
2013-01-12 19:00:00,70.1,68.0,30.10,West,267,0.0,0.0,93,0.00,,,0.00,Wunderground v.1.13,2013-01-13 00:00:00,
2013-01-12 19:10:00,69.9,67.8,30.10,West,267,0.0,0.0,93,0.00,,,0.00,Wunderground v.1.13,2013-01-13 00:10:00,
2013-01-12 19:20:00,69.6,67.8,30.10,West,267,0.0,0.0,94,0.00,,,0.00,Wunderground v.1.13,2013-01-13 00:20:00,
2013-01-12 19:30:00,69.4,67.6,30.10,West,267,0.0,0.0,94,0.00,,,0.00,Wunderground v.1.13,2013-01-13 00:30:00,
2013-01-12 19:40:00,69.4,67.6,30.10,West,267,0.0,0.0,94,0.00,,,0.00,Wunderground v.1.13,2013-01-13 00:40:00,
2013-01-12 19:50:00,69.3,67.8,30.10,West,267,0.0,0.0,95,0.00,,,0.00,Wunderground v.1.13,2013-01-13 00:50:00,
2013-01-12 20:00:00,69.3,67.8,30.09,West,267,0.0,0.0,95,0.00,,,0.00,Wunderground v.1.13,2013-01-13 01:00:00,
2013-01-12 20:10:00,69.1,67.6,30.09,West,267,0.0,0.0,95,0.00,,,0.00,Wunderground v.1.13,2013-01-13 01:10:00,
2013-01-12 20:20:00,68.9,67.4,30.08,West,267,0.0,0.0,95,0.00,,,0.00,Wunderground v.1.13,2013-01-13 01:20:00,
2013-01-12 20:30:00,68.6,67.4,30.08,West,267,0.0,0.0,96,0.00,,,0.00,Wunderground v.1.13,2013-01-13 01:30:00,
2013-01-12 20:40:00,68.4,67.2,30.08,West,267,0.0,0.0,96,0.00,,,0.00,Wunderground v.1.13,2013-01-13 01:40:00,
2013-01-12 20:50:00,68.4,67.5,30.08,West,267,0.0,0.0,97,0.00,,,0.00,Wunderground v.1.13,2013-01-13 01:50:00,
2013-01-12 21:00:00,68.3,67.4,30.08,West,267,0.0,0.0,97,0.00,,,0.00,Wunderground v.1.13,2013-01-13 02:00:00,
2013-01-12 21:10:00,68.1,67.2,30.08,West,267,0.0,0.0,97,0.00,,,0.00,Wunderground v.1.13,2013-01-13 02:10:00,
2013-01-12 21:20:00,68.1,67.2,30.08,West,267,0.0,0.0,97,0.00,,,0.00,Wunderground v.1.13,2013-01-13 02:20:00,
2013-01-12 21:30:00,68.3,67.4,30.08,West,267,0.0,0.0,97,0.00,,,0.00,Wunderground v.1.13,2013-01-13 02:30:00,
2013-01-12 21:40:00,68.1,67.2,30.08,West,267,0.0,0.0,97,0.00,,,0.00,Wunderground v.1.13,2013-01-13 02:40:00,
2013-01-12 21:50:00,67.8,66.9,30.08,West,267,0.0,0.0,97,0.00,,,0.00,Wunderground v.1.13,2013-01-13 02:50:00,
2013-01-12 22:00:00,67.8,66.9,30.08,West,267,0.0,0.0,97,0.00,,,0.00,Wunderground v.1.13,2013-01-13 03:00:00,
2013-01-12 22:10:00,67.4,66.5,30.08,West,267,0.0,0.0,97,0.00,,,0.00,Wunderground v.1.13,2013-01-13 03:10:00,
2013-01-12 22:20:00,67.3,66.4,30.08,West,267,0.0,0.0,97,0.00,,,0.00,Wunderground v.1.13,2013-01-13 03:20:00,
2013-01-12 22:30:00,67.1,66.2,30.08,West,267,0.0,0.0,97,0.00,,,0.00,Wunderground v.1.13,2013-01-13 03:30:00,
2013-01-12 22:40:00,67.1,66.2,30.08,West,267,0.0,0.0,97,0.00,,,0.00,Wunderground v.1.13,2013-01-13 03:40:00,
2013-01-12 22:50:00,67.1,66.5,30.08,West,267,0.0,0.0,98,0.00,,,0.00,Wunderground v.1.13,2013-01-13 03:50:00,
2013-01-12 23:00:00,66.9,66.3,30.08,West,267,0.0,0.0,98,0.00,,,0.00,Wunderground v.1.13,2013-01-13 04:00:00,
2013-01-12 23:10:00,67.1,66.5,30.08,West,267,0.0,0.0,98,0.00,,,0.00,Wunderground v.1.13,2013-01-13 04:10:00,
2013-01-12 23:20:00,67.8,67.2,30.08,SE,134,0.0,2.0,98,0.00,,,0.00,Wunderground v.1.13,2013-01-13 04:20:00,
2013-01-12 23:30:00,68.6,67.4,30.08,SE,124,2.0,2.0,96,0.00,,,0.00,Wunderground v.1.13,2013-01-13 04:30:00,
2013-01-12 23:40:00,69.3,67.2,30.08,SE,124,0.0,0.0,93,0.00,,,0.00,Wunderground v.1.13,2013-01-13 04:40:00,
2013-01-12 23:50:00,69.4,66.7,30.08,SE,124,0.0,0.0,91,0.00,,,0.00,Wunderground v.1.13,2013-01-13 04:50:00,